Date String (YYYY-MM-DD hh:mm:ss) UTC,Instrument flags,Ambient pressure (hPa),Sample flow (lpm),Bypass flow (lpm),Sample temperature (°C),Ambient temperature (°C),ASC tube jacket temperature (°C),LED temperature (°C),Box temperature (°C),Sample RH (%),Span deviation,Mass concentration (μg/m³),Mass concentration (μg/m³),Mass concentration (μg/m³)
DateTimeUTC,F1_M11,P_M11,Q1_M11,Q2_M11,T1_M11,T2_M11,T3_M11,T4_M11,T5_M11,U1_M11,ZSPAN_M11,X2_M11,X0_M11,X1_M11
2021-11-18 07:00:00,,0834.8,4.99,0.00,22.3,21.7,00.0,31.4,24.0,09.4,0000.0,0005.11,0015.94,0003.80
2021-11-18 07:01:00,,0834.8,5.01,0.00,22.3,21.7,00.0,31.4,23.9,09.4,0000.0,0005.10,0016.76,0003.80
2021-11-18 07:02:00,,0834.8,4.99,0.00,22.2,21.6,00.0,31.4,23.9,09.4,0000.0,0005.13,0017.21,0003.81
2021-11-18 07:03:00,,0834.8,5.00,0.00,22.2,21.5,00.0,31.3,23.9,09.4,0000.0,0005.19,0016.54,0003.82
2021-11-18 07:04:00,,0834.8,4.99,0.00,22.2,21.5,00.0,31.3,23.8,09.4,0000.0,0005.19,0017.04,0003.82
2021-11-18 07:05:00,,0834.8,4.99,0.00,22.1,21.4,00.0,31.3,23.8,09.4,0000.0,0005.23,0018.22,0003.82
2021-11-18 07:06:00,,0834.9,5.00,0.00,22.2,21.5,00.0,31.3,23.8,09.4,0000.0,0005.21,0018.41,0003.81
2021-11-18 07:07:00,,0834.9,5.00,0.00,22.2,22.2,00.0,31.3,24.0,09.4,0000.0,0005.20,0018.13,0003.80
2021-11-18 07:08:00,,0834.8,5.01,0.00,22.3,22.9,00.0,31.4,24.2,09.3,0000.0,0005.21,0019.05,0003.80
2021-11-18 07:09:00,,0834.9,4.99,0.00,22.4,23.0,00.0,31.4,24.3,09.3,0000.0,0005.23,0018.87,0003.78
2021-11-18 07:10:00,,0834.8,5.01,0.00,22.4,22.7,00.0,31.4,24.3,09.3,0000.0,0005.24,0019.33,0003.78
2021-11-18 07:11:00,,0834.8,5.01,0.00,22.4,22.5,00.0,31.4,24.2,09.3,0000.0,0005.26,0019.33,0003.78
2021-11-18 07:12:00,,0834.8,5.00,0.00,22.4,22.3,00.0,31.4,24.2,09.3,0000.0,0005.26,0019.26,0003.78
2021-11-18 07:13:00,,0834.8,5.01,0.00,22.4,22.1,00.0,31.4,24.1,09.4,0000.0,0005.27,0019.55,0003.78
2021-11-18 07:14:00,,0834.8,4.99,0.00,22.4,21.9,00.0,31.4,24.1,09.4,0000.0,0005.26,0020.34,0003.78
2021-11-18 07:15:00,,0834.8,5.01,0.00,22.3,21.8,00.0,31.4,24.0,09.4,0000.0,0005.28,0020.05,0003.79
2021-11-18 07:16:00,,0834.8,5.00,0.00,22.3,21.7,00.0,31.4,24.0,09.4,0000.0,0005.27,0019.99,0003.80
2021-11-18 07:17:00,,0834.8,5.00,0.00,22.3,21.6,00.0,31.4,23.9,09.4,0000.0,0005.37,0020.45,0003.80
2021-11-18 07:18:00,,0834.8,4.99,0.00,22.2,21.6,00.0,31.3,23.9,09.3,0000.0,0005.39,0020.63,0003.80
2021-11-18 07:19:00,,0834.8,4.99,0.00,22.2,21.5,00.0,31.3,23.8,09.3,0000.0,0005.38,0020.16,0003.79
2021-11-18 07:20:00,,0834.8,5.00,0.00,22.2,21.4,00.0,31.3,23.8,09.3,0000.0,0005.36,0020.78,0003.79
2021-11-18 07:21:00,,0834.8,5.01,0.00,22.1,21.4,00.0,31.3,23.8,09.3,0000.0,0005.29,0021.33,0003.77
2021-11-18 07:22:00,,0834.7,5.00,0.00,22.2,21.9,00.0,31.3,23.9,09.3,0000.0,0005.24,0022.35,0003.75
2021-11-18 07:23:00,,0834.8,4.99,0.00,22.3,22.7,00.0,31.3,24.1,09.3,0000.0,0005.19,0022.61,0003.74
2021-11-18 07:24:00,,0834.7,5.02,0.00,22.4,23.4,00.0,31.4,24.4,09.2,0000.0,0005.17,0022.18,0003.73
2021-11-18 07:25:00,,0834.7,5.00,0.00,22.5,23.4,00.0,31.4,24.5,09.1,0000.0,0005.11,0021.32,0003.71
2021-11-18 07:26:00,,0834.7,4.99,0.00,22.6,23.1,00.0,31.4,24.4,09.1,0000.0,0005.08,0021.23,0003.69
2021-11-18 07:27:00,,0834.8,5.00,0.00,22.5,22.8,00.0,31.4,24.3,09.1,0000.0,0005.06,0020.70,0003.67
2021-11-18 07:28:00,,0834.7,5.00,0.00,22.5,22.5,00.0,31.4,24.3,09.1,0000.0,0004.96,0020.22,0003.66
2021-11-18 07:29:00,,0834.7,5.01,0.00,22.5,22.3,00.0,31.4,24.2,09.1,0000.0,0004.93,0020.48,0003.66
2021-11-18 07:30:00,,0834.7,5.00,0.00,22.4,22.1,00.0,31.4,24.2,09.1,0000.0,0004.94,0020.74,0003.66
2021-11-18 07:31:00,,0834.7,5.01,0.00,22.4,22.0,00.0,31.4,24.1,09.1,0000.0,0004.95,0020.10,0003.66
2021-11-18 07:32:00,,0834.7,5.00,0.00,22.4,21.8,00.0,31.4,24.0,09.1,0000.0,0004.94,0018.76,0003.66
2021-11-18 07:33:00,,0834.7,4.99,0.00,22.3,21.7,00.0,31.4,24.0,09.2,0000.0,0004.93,0018.60,0003.65
2021-11-18 07:34:00,,0834.7,5.01,0.00,22.3,21.6,00.0,31.4,23.9,09.2,0000.0,0004.94,0018.12,0003.64
2021-11-18 07:35:00,,0834.7,4.99,0.00,22.3,21.6,00.0,31.4,23.9,09.2,0000.0,0004.89,0018.69,0003.62
2021-11-18 07:36:00,,0834.7,5.02,0.00,22.2,21.5,00.0,31.4,23.9,09.2,0000.0,0004.88,0019.43,0003.62
2021-11-18 07:37:00,,0834.7,5.00,0.00,22.2,21.4,00.0,31.3,23.8,09.2,0000.0,0004.85,0019.31,0003.62
2021-11-18 07:38:00,,0834.7,5.00,0.00,22.2,21.4,00.0,31.3,23.8,09.2,0000.0,0004.80,0018.83,0003.61
2021-11-18 07:39:00,,0834.7,5.01,0.00,22.1,21.5,00.0,31.3,23.8,09.2,0000.0,0004.77,0018.82,0003.62
2021-11-18 07:40:00,,0834.7,5.00,0.00,22.2,22.2,00.0,31.3,24.0,09.2,0000.0,0004.77,0017.84,0003.61
2021-11-18 07:41:00,,0834.7,4.99,0.00,22.3,22.9,00.0,31.4,24.2,09.1,0000.0,0004.73,0016.53,0003.59
2021-11-18 07:42:00,,0834.7,4.99,0.00,22.4,23.0,00.0,31.4,24.3,09.1,0000.0,0004.68,0017.46,0003.58
2021-11-18 07:43:00,,0834.7,5.02,0.00,22.5,22.7,00.0,31.4,24.3,09.1,0000.0,0004.63,0017.50,0003.56
2021-11-18 07:44:00,,0834.7,5.00,0.00,22.4,22.5,00.0,31.4,24.2,09.1,0000.0,0004.67,0016.86,0003.57
2021-11-18 07:45:00,,0834.7,5.00,0.00,22.4,22.3,00.0,31.4,24.1,09.1,0000.0,0004.66,0016.60,0003.57
2021-11-18 07:46:00,,0834.7,5.00,0.00,22.4,22.1,00.0,31.4,24.1,09.1,0000.0,0004.67,0015.78,0003.57
2021-11-18 07:47:00,,0834.7,5.00,0.00,22.3,21.9,00.0,31.4,24.0,09.1,0000.0,0004.69,0015.75,0003.56
2021-11-18 07:48:00,,0834.7,4.99,0.00,22.3,21.8,00.0,31.4,24.0,09.1,0000.0,0004.72,0015.59,0003.56
2021-11-18 07:49:00,,0834.7,5.00,0.00,22.3,21.7,00.0,31.4,23.9,09.1,0000.0,0004.76,0015.78,0003.58
2021-11-18 07:50:00,,0834.7,5.00,0.00,22.2,21.6,00.0,31.3,23.9,09.2,0000.0,0004.81,0015.47,0003.59
2021-11-18 07:51:00,,0834.7,5.02,0.00,22.2,21.5,00.0,31.3,23.9,09.2,0000.0,0004.85,0015.47,0003.62
2021-11-18 07:52:00,,0834.7,4.99,0.00,22.2,21.5,00.0,31.3,23.8,09.2,0000.0,0004.91,0015.68,0003.64
2021-11-18 07:53:00,,0834.7,5.01,0.00,22.1,21.4,00.0,31.3,23.8,09.3,0000.0,0004.94,0014.17,0003.66
2021-11-18 07:54:00,,0834.7,5.00,0.00,22.1,21.5,00.0,31.3,23.8,09.3,0000.0,0005.02,0015.01,0003.69
2021-11-18 07:55:00,,0834.7,5.01,0.00,22.2,22.2,00.0,31.3,24.0,09.3,0000.0,0005.06,0015.33,0003.72
2021-11-18 07:56:00,,0834.7,5.00,0.00,22.3,23.0,00.0,31.4,24.2,09.2,0000.0,0005.11,0014.81,0003.73
2021-11-18 07:57:00,,0834.7,4.99,0.00,22.4,23.0,00.0,31.4,24.3,09.2,0000.0,0005.14,0014.62,0003.76
2021-11-18 07:58:00,,0834.7,4.99,0.00,22.4,22.8,00.0,31.4,24.3,09.2,0000.0,0005.18,0013.79,0003.78
2021-11-18 07:59:00,,0834.7,5.00,0.00,22.4,22.5,00.0,31.4,24.2,09.2,0000.0,0005.20,0014.45,0003.81
